Location: Newark
(36.7000°N, 45.1333°E)
Time: 01:49:53
(UTC+00:00)

Envisat - Visible Passes

Search period start: 26 January 2020 00:00
Search period end: 05 February 2020 00:00
Orbit: 764 x 766 km, 98.1° (Epoch: 25 January)

Date Brightness Start Highest point End Pass type
(mag) Time Alt. Az. Time Alt. Az. Time Alt. Az.
26 Jan 6.3 02:21:14 10° ENE 02:23:28 13° E 02:25:42 10° ESE visible
26 Jan 3.6 15:09:49 10° S 15:14:50 62° W 15:19:52 10° NNW visible
27 Jan 3.9 03:21:07 10° NNE 03:26:07 56° E 03:31:05 10° S visible
27 Jan 6.2 16:14:46 10° WSW 16:17:27 14° W 16:20:08 10° WNW visible
28 Jan 5.5 02:45:08 10° NE 02:49:11 24° E 02:53:13 10° SSE visible
28 Jan 4.8 15:35:50 10° SSW 15:40:23 33° W 15:44:59 10° NNW visible
29 Jan 3.2 14:58:28 10° S 15:03:32 80° W 15:08:38 10° NNW visible
30 Jan 4.4 03:09:57 10° NNE 03:14:48 43° E 03:19:36 10° S visible
30 Jan 5.8 16:02:34 10° SW 16:06:03 19° W 16:09:33 10° NW visible
31 Jan 5.9 02:34:18 10° NE 02:37:48 19° E 02:41:17 10° SE visible
31 Jan 4.3 15:24:16 10° S 15:29:03 43° W 15:33:53 10° NNW visible
01 Feb 3.0 14:47:11 10° SSE 14:52:15 81° ENE 14:57:21 10° N visible
02 Feb 4.9 02:58:53 10° NNE 03:03:27 33° E 03:08:01 10° SSE visible
02 Feb 5.5 15:50:38 10° SSW 15:54:40 24° W 15:58:44 10° NW visible
03 Feb 6.2 02:23:43 10° ENE 02:26:25 14° E 02:29:05 10° SE visible
03 Feb 3.8 15:12:46 10° S 15:17:44 56° W 15:22:44 10° NNW visible
04 Feb 3.7 03:23:59 10° NNE 03:29:02 62° E 03:34:02 10° S visible
04 Feb 6.3 16:18:09 10° WSW 16:20:23 13° W 16:22:38 10° WNW visible
